Tracking 31027 objects as of 19-Jul-2025
HD Live streaming from Space Station
objects crossing your sky now

STARLINK-4021

Track STARLINK-4021 now!
10-day predictions
STARLINK-4021 is classified as:


NORAD ID: 53149
Int'l Code: 2022-083T
Perigee: 545.9 km
Apogee: 547.8 km
Inclination: 53.2 °
Period: 95.4 minutes
Semi major axis: 6917 km
RCS: Unknown
Launch date: July 17, 2022
Source: United States (US)
Launch site: AIR FORCE EASTERN TEST RANGE (AFETR)
Your satellite tracking list
ABS 3
Track 1 satellite(s)




NASA's NSSDC Master Catalog

Two Line Element Set (TLE):
1 53149U 22083T   25199.10207345 -.00000837  00000-0 -34493-4 0  9992
2 53149  53.2172 137.4300 0001402  91.3086 268.8066 15.08843856165945
Source of the keplerian elements: AFSPC